sat.trackr.live / text

‹ back to catalog

STARLINK-35719

NORAD 67183 · 2025-303W

PAYLOAD ACTIVE UNKNOWN

§ Identity

Operator
Country
US
Launch date
2025-12-17
Launch site
AFETR
Launch vehicle
Mass (kg)
RCS (m²)

Purposes: comms

External: N2YO · Heavens-Above · Gunter

§ Orbital elements

Epoch: 2026-09-19T18:59:56.317920Z

Period
94.27 min
Inclination
43.0016°
Eccentricity
0.0001164
Mean motion
15.27579850 rev/d
Perigee alt
482.3 km
Apogee alt
483.8 km
Semi-major
6,861.2 km
B*
3.4050e-4
RAAN
294.2565°
Arg perigee
281.6282°
Mean anomaly
78.4439°
Rev number
4,242

§ Raw data

STARLINK-357191 67183U 25303W   26262.79162405  .00009119  00000+0  34050-3 0  99942 67183  43.0016 294.2565 0001164 281.6282  78.4439 15.27579850 42421

JSON: /api/v1/satellites/67183 · /tle

For live sub-satellite position, see the globe view (requires WebGL).

§ Visibility from observer

Set your observer location to see the next 7 days of passes ≥ 10°. The values pass through the URL so the page stays shareable.

No JS? Fill the form by hand. The geolocation button needs JavaScript.